Location: Kaarina
(60.4167°N, 22.4167°E)
Time: 21:54:24
(UTC+03:00)

Cosmos 2322 Rocket - Pass Details

Date: 24 August 2019
Orbit: 834 x 850 km, 71.0° (Epoch: 14 September)

Event Time Altitude Azimuth Distance (km) Brightness Sun altitude
Rises 22:17:02 0° 316° (NW) 3,411 7.8 -8.8°
Reaches altitude 10° 22:19:32 10° 320° (NW) 2,471 6.3 -9.0°
Maximum altitude 22:25:09 63° 42° (NE) 941 2.5 -9.5°
Enters shadow 22:30:19 12° 122° (ESE) 2,298 3.8 -10.0°
